Hourly Weather Goes

Today, 25 January, Monday

Time Temperature Precipitation Wind Pressure Humidity
00:00 +1°C° 0 mm 3 mps 747 mmHg 94%
01:00 0°C° 0.3 mm 4 mps 748 mmHg 94%
02:00 -1°C° 0.3 mm 4 mps 748 mmHg 95%
03:00 -1°C° 0.3 mm 4 mps 749 mmHg 95%
04:00 -1°C° 0 mm 5 mps 749 mmHg 94%
05:00 -1°C° 0 mm 5 mps 750 mmHg 93%
06:00 -1°C° 0 mm 5 mps 750 mmHg 91%
07:00 0°C° 0 mm 4 mps 751 mmHg 88%
08:00 0°C° 0 mm 4 mps 752 mmHg 85%
09:00 +1°C° 0 mm 3 mps 753 mmHg 82%
10:00 +2°C° 0 mm 3 mps 753 mmHg 75%
11:00 +3°C° 0 mm 4 mps 754 mmHg 68%
12:00 +4°C° 0 mm 4 mps 755 mmHg 61%
13:00 +4°C° 0 mm 4 mps 755 mmHg 64%
14:00 +2°C° 0 mm 5 mps 755 mmHg 66%
15:00 +2°C° 0 mm 6 mps 756 mmHg 69%
16:00 +2°C° 0 mm 6 mps 756 mmHg 73%
17:00 +1°C° 0 mm 6 mps 757 mmHg 78%
18:00 +1°C° 0 mm 6 mps 757 mmHg 83%
19:00 0°C° 0.1 mm 7 mps 757 mmHg 81%
20:00 +1°C° 0.1 mm 8 mps 758 mmHg 79%
21:00 +1°C° 0.1 mm 8 mps 758 mmHg 77%
22:00 +1°C° 0 mm 9 mps 758 mmHg 76%
23:00 +1°C° 0 mm 9 mps 758 mmHg 76%

Tomorrow, 26 January, Tuesday

Time Temperature Precipitation Wind Pressure Humidity
00:00 +1°C° 0 mm 9 mps 759 mmHg 75%
01:00 +1°C° 0 mm 9 mps 759 mmHg 75%
02:00 +1°C° 0 mm 9 mps 759 mmHg 75%
03:00 +1°C° 0 mm 9 mps 760 mmHg 75%
04:00 +1°C° 0 mm 8 mps 760 mmHg 76%
05:00 +1°C° 0 mm 8 mps 761 mmHg 77%
06:00 +2°C° 0 mm 7 mps 762 mmHg 78%
07:00 +2°C° 0 mm 7 mps 762 mmHg 78%
08:00 +2°C° 0 mm 6 mps 763 mmHg 78%
09:00 +2°C° 0 mm 6 mps 763 mmHg 78%
10:00 +3°C° 0 mm 6 mps 763 mmHg 77%
11:00 +3°C° 0 mm 5 mps 764 mmHg 75%
12:00 +3°C° 0 mm 5 mps 764 mmHg 74%
13:00 +3°C° 0 mm 5 mps 764 mmHg 74%
14:00 +3°C° 0 mm 5 mps 764 mmHg 73%
15:00 +3°C° 0 mm 5 mps 764 mmHg 73%
16:00 +3°C° 0 mm 5 mps 764 mmHg 75%
17:00 +3°C° 0 mm 4 mps 764 mmHg 77%
18:00 +3°C° 0 mm 4 mps 764 mmHg 78%
19:00 +2°C° 0.1 mm 5 mps 764 mmHg 79%
20:00 +2°C° 0.1 mm 5 mps 764 mmHg 80%
21:00 +2°C° 0.1 mm 6 mps 764 mmHg 80%
22:00 0°C° 0.2 mm 7 mps 764 mmHg 81%
23:00 0°C° 0.2 mm 8 mps 764 mmHg 81%

Day after tomorrow, 27 January, Wednesday

Time Temperature Precipitation Wind Pressure Humidity
00:00 -1°C° 0.2 mm 8 mps 763 mmHg 81%
01:00 -1°C° 0.2 mm 8 mps 763 mmHg 86%
02:00 -1°C° 0.2 mm 8 mps 762 mmHg 90%
03:00 -1°C° 0.2 mm 9 mps 761 mmHg 95%
04:00 -1°C° 0.1 mm 8 mps 761 mmHg 91%
05:00 -1°C° 0.1 mm 8 mps 761 mmHg 88%
06:00 0°C° 0.1 mm 8 mps 760 mmHg 85%
07:00 0°C° 0 mm 8 mps 760 mmHg 84%
08:00 0°C° 0 mm 7 mps 760 mmHg 83%
09:00 0°C° 0 mm 7 mps 760 mmHg 82%
10:00 +2°C° 0.1 mm 6 mps 760 mmHg 84%
11:00 +2°C° 0.1 mm 6 mps 760 mmHg 85%
12:00 +3°C° 0.1 mm 6 mps 760 mmHg 86%
13:00 +3°C° 0.3 mm 5 mps 760 mmHg 89%
14:00 +3°C° 0.3 mm 5 mps 759 mmHg 91%
15:00 +4°C° 0.3 mm 4 mps 759 mmHg 94%
16:00 +5°C° 0.2 mm 4 mps 759 mmHg 95%
17:00 +5°C° 0.2 mm 4 mps 759 mmHg 96%
18:00 +5°C° 0.2 mm 3 mps 759 mmHg 96%
19:00 +5°C° 0.2 mm 4 mps 759 mmHg 97%
20:00 +5°C° 0.2 mm 4 mps 758 mmHg 97%
21:00 +5°C° 0.2 mm 4 mps 758 mmHg 97%
22:00 +6°C° 0.1 mm 4 mps 757 mmHg 97%
23:00 +6°C° 0.1 mm 4 mps 757 mmHg 97%

28 January, Thursday

Time Temperature Precipitation Wind Pressure Humidity
00:00 +6°C° 0.1 mm 4 mps 756 mmHg 98%
01:00 +6°C° 1.2 mm 5 mps 755 mmHg 97%
02:00 +5°C° 1.2 mm 6 mps 754 mmHg 97%
03:00 +5°C° 1.2 mm 6 mps 753 mmHg 97%
04:00 +6°C° 1.9 mm 7 mps 752 mmHg 96%
05:00 +8°C° 1.9 mm 7 mps 751 mmHg 96%
06:00 +8°C° 1.9 mm 7 mps 750 mmHg 96%
07:00 +9°C° 0.6 mm 8 mps 750 mmHg 93%
08:00 +8°C° 0.6 mm 9 mps 750 mmHg 90%
09:00 +9°C° 0.6 mm 10 mps 750 mmHg 88%
10:00 +9°C° 0 mm 11 mps 751 mmHg 83%
11:00 +9°C° 0 mm 11 mps 751 mmHg 78%
12:00 +10°C° 0 mm 12 mps 752 mmHg 74%
13:00 +9°C° 0 mm 11 mps 752 mmHg 74%
14:00 +9°C° 0 mm 11 mps 752 mmHg 75%
15:00 +9°C° 0 mm 11 mps 752 mmHg 75%
16:00 +8°C° 0 mm 11 mps 752 mmHg 77%
17:00 +8°C° 0 mm 11 mps 752 mmHg 80%
18:00 +7°C° 0 mm 11 mps 753 mmHg 83%
19:00 +8°C° 0 mm 10 mps 752 mmHg 83%
20:00 +8°C° 0 mm 10 mps 752 mmHg 84%
21:00 +8°C° 0 mm 10 mps 752 mmHg 84%
22:00 +8°C° 0.2 mm 10 mps 751 mmHg 84%
23:00 +9°C° 0.2 mm 10 mps 751 mmHg 84%

29 January, Friday

Time Temperature Precipitation Wind Pressure Humidity
00:00 +9°C° 0.2 mm 10 mps 750 mmHg 84%
01:00 +9°C° 0.8 mm 11 mps 749 mmHg 84%
02:00 +9°C° 0.8 mm 11 mps 748 mmHg 85%
03:00 +9°C° 0.8 mm 12 mps 747 mmHg 85%
04:00 +9°C° 0 mm 12 mps 747 mmHg 84%
05:00 +8°C° 0 mm 12 mps 747 mmHg 83%
06:00 +8°C° 0 mm 11 mps 747 mmHg 82%
07:00 +7°C° 0 mm 12 mps 747 mmHg 79%
08:00 +7°C° 0 mm 12 mps 748 mmHg 76%
09:00 +5°C° 0 mm 12 mps 748 mmHg 74%
10:00 +5°C° 0 mm 12 mps 748 mmHg 72%
11:00 +7°C° 0 mm 13 mps 748 mmHg 71%
12:00 +7°C° 0 mm 13 mps 749 mmHg 70%
13:00 +7°C° 0 mm 13 mps 749 mmHg 68%
14:00 +7°C° 0 mm 12 mps 749 mmHg 67%
15:00 +7°C° 0 mm 12 mps 749 mmHg 66%
16:00 +6°C° 0 mm 11 mps 750 mmHg 69%
17:00 +6°C° 0 mm 10 mps 750 mmHg 71%
18:00 +6°C° 0 mm 9 mps 751 mmHg 73%
19:00 +6°C° 0 mm 9 mps 751 mmHg 76%
20:00 +5°C° 0 mm 8 mps 751 mmHg 78%
21:00 +5°C° 0 mm 7 mps 752 mmHg 81%
22:00 +5°C° 0 mm 7 mps 752 mmHg 83%
23:00 +5°C° 0 mm 6 mps 752 mmHg 85%

30 January, Saturday

Time Temperature Precipitation Wind Pressure Humidity
00:00 +5°C° 0 mm 5 mps 753 mmHg 87%
01:00 +5°C° 0.1 mm 4 mps 753 mmHg 88%
02:00 +5°C° 0.1 mm 4 mps 753 mmHg 89%
03:00 +5°C° 0.1 mm 3 mps 753 mmHg 90%
04:00 +5°C° 0.1 mm 3 mps 754 mmHg 90%
05:00 +4°C° 0.1 mm 3 mps 754 mmHg 90%
06:00 +4°C° 0.1 mm 3 mps 754 mmHg 90%
07:00 +4°C° 0 mm 3 mps 754 mmHg 90%
08:00 +5°C° 0 mm 3 mps 754 mmHg 90%
09:00 +5°C° 0 mm 3 mps 755 mmHg 89%
10:00 +5°C° 0.1 mm 4 mps 755 mmHg 86%
11:00 +6°C° 0.1 mm 5 mps 755 mmHg 83%
12:00 +6°C° 0.1 mm 5 mps 755 mmHg 79%
13:00 +6°C° 0.1 mm 5 mps 755 mmHg 79%
14:00 +6°C° 0.1 mm 5 mps 755 mmHg 79%
15:00 +6°C° 0.1 mm 5 mps 755 mmHg 79%
16:00 +6°C° 0.1 mm 4 mps 756 mmHg 80%
17:00 +5°C° 0.1 mm 4 mps 756 mmHg 82%
18:00 +5°C° 0.1 mm 3 mps 757 mmHg 84%
19:00 +4°C° 0 mm 3 mps 757 mmHg 86%
20:00 +4°C° 0 mm 3 mps 757 mmHg 89%
21:00 +5°C° 0 mm 2 mps 757 mmHg 91%
22:00 +4°C° 0 mm 2 mps 757 mmHg 92%
23:00 +5°C° 0 mm 1 mps 757 mmHg 93%
Show more